Regional Weather Roundup
Issued by NWS Sterling, VA

Home | Current Version | Previous Version | Text Only | Print | Product List | Glossary On
Versions: 1 2 3 4 5 6 7 8 9 10 11 12 13 14 15 16 17 18 19 20 21 22 23 24 25 26 27 28 29 30 31 32 33 34 35 36 37 38 39 40 41 42 43 44 45 46 47 48 49 50
000
ASUS41 KLWX 030710
RWRLWX

REGIONAL WEATHER ROUNDUP
NATIONAL WEATHER SERVICE BALTIMORE MD/WASHINGTON DC
300 AM EDT FRI JUL 03 2015

Note: "FAIR" indicates few or no clouds below 12,000 feet
with no significant weather and/or obstructions to visibility.
 TC=TEMPERATURE CELSIUS

 * =Non NWS site. Station does not report precipitation (e.g. rain,
    snow, etc.), thunder, or fog.

DCZ001-MDZ009-015-VAZ040>042-051-053>054-030800-
WASHINGTON METRO

CITY           SKY/WX    TMP DP  RH WIND       PRES   REMARKS
WASHINGTON NAT CLEAR     69  64  84 CALM      29.92F
DULLES         CLEAR     62  61  96 CALM      29.93S FOG
ANDREWS AFB    CLEAR     63  63 100 CALM      29.91F FOG
FT BELVOIR     CLEAR     62  61  96 CALM      29.92F FOG
QUANTICO       CLEAR     66  62  87 NW5       29.93S
COLLEGE PARK*  CLEAR     63  63 100 CALM      29.91F
LEESBURG*      PTCLDY    63  63 100 CALM      29.94S FOG
MANASSAS*      CLOUDY    63  61  94 CALM      29.93S VSB<1/4
GAITHERSBURG*  CLEAR     61  57  88 CALM      29.97S

$$

MDZ006>007-011-014-030800-
BALTIMORE METRO

CITY           SKY/WX    TMP DP  RH WIND       PRES   REMARKS
BWI AIRPORT    CLEAR     62  61  96 W3        29.92S FOG
MD SCIENCE CTR   N/A     68  64  87 MISG      29.92S
MARTIN STATE   CLEAR     63  63 100 W3        29.92F FOG
ANNAPOLIS      CLEAR     65  62  90 CALM      29.91S FOG
FORT MEADE*    CLEAR     59  57  94 CALM      29.94F

$$

MDZ012-015-019>023-030800-
MARYLAND EASTERN SHORE

CITY           SKY/WX    TMP DP  RH WIND       PRES   REMARKS
OCEAN CITY     FOG       63  61  93 CALM      29.90S VSB 1/2
SALISBURY      MOCLDY    62  62 100 CALM      29.90S FOG
BAY BRIDGE AP*   N/A     64  64 100 CALM      29.91F
CAMBRIDGE*     CLEAR     63  61  94 CALM      29.90F
EASTON*        CLEAR     63  63 100 CALM      29.94F FOG

$$

MDZ017>025-030800-
SOUTHERN MARYLAND

CITY           SKY/WX    TMP DP  RH WIND       PRES   REMARKS
PATUXENT RIVER CLEAR     66  64  93 W5        29.91S
ST INIGOES     CLEAR     65  63  93 CALM      29.91R FOG
LEONARDTOWN*   CLEAR     61  61 100 CALM      29.93S

$$

MDZ003>005-030800-
NORTH CENTRAL MARYLAND

CITY           SKY/WX    TMP DP  RH WIND       PRES   REMARKS
FREDERICK*     FOG       61  61 100 CALM      29.96S VSB 1/4
HAGERSTOWN APT MOCLDY    65  61  87 E3        29.93S FOG
WESTMINSTER*   PTCLDY    63  61  94 CALM      29.94S FOG

$$

MDZ501>502-030800-
WESTERN MARYLAND

CITY           SKY/WX    TMP DP  RH WIND       PRES   REMARKS
OAKLAND*       CLEAR     55 N/A N/A SW3       30.02S
CUMBERLAND*    MOCLDY    59  59 100 CALM      30.00R VSB 1/4

$$

VAZ025>031-030800-
SHENANDOAH VALLEY

CITY           SKY/WX    TMP DP  RH WIND       PRES   REMARKS
WINCHESTER*    CLEAR     64  63  94 SW5       29.95R FOG
FRONT ROYAL*   FAIR      61  61 100 S6        29.94R
LURAY*         FOG       63  63 100 CALM      29.95F VSB<1/4
NEW MARKET*    CLOUDY    60  60 100 CALM      29.95S VSB 1/2
STAUNTON*      FOG       64  62  94 CALM      29.98S VSB 3/4
WAYNESBORO*    FAIR      61  60  99 CALM      29.97F

$$

WVZ021-048>050-054>055-030800-
EASTERN WEST VIRGINIA PANHANDLE

CITY           SKY/WX    TMP DP  RH WIND       PRES   REMARKS
MARTINSBURG    FOG       64  62  93 CALM      29.94S VSB 1/4
PETERSBURG*    CLEAR     57  54  91 CALM      29.97F FOG

$$

VAZ036>039-050-030800-
CENTRAL FOOTHILLS

CITY           SKY/WX    TMP DP  RH WIND       PRES   REMARKS
CHARLOTTESVILL MOCLDY    65  63  93 CALM      29.93F FOG
CULPEPER*        N/A     60  60 100 CALM      29.94R FOG
ORANGE*        PTCLDY    63  61  94 CALM      29.95S FOG
GORDONSVILLE*  FAIR      63  61  94 CALM      29.93S FOG
WARRENTON*     FOG       61  61 100 CALM      29.92S VSB 1/4

$$

VAZ055>057-030800-
NORTH AND CENTRAL PIEDMONT

CITY           SKY/WX    TMP DP  RH WIND       PRES   REMARKS
FREDERICKSBRG* PTCLDY    65  65 100 CALM      29.92R
STAFFORD*      CLEAR     60  59  97 CALM      29.97S FOG

$$

NCZ024-NYZ072-PAZ021-071-VAZ022-071-030800-
OTHER REGIONAL OBSERVATIONS

CITY           SKY/WX    TMP DP  RH WIND       PRES   REMARKS
NEW YORK CITY  CLEAR     70  55  59 VRB7      29.93S
PHILADELPHIA   PTCLDY    69  63  81 CALM      29.91S
PITTSBURGH     PTCLDY    61  54  77 N3        29.96F
ROANOKE        CLOUDY    69  65  86 CALM      29.97F
RICHMOND       CLOUDY    70  67  90 CALM      29.92S FOG
RALEIGH        MOCLDY    72  69  90 CALM      29.91F FOG

$$

ANZ530>537-030800-
MARINE OBSERVATIONS

STATION/POSITION TIME  TEMP    WIND        PRES
                       AIR SEA DIR/SP/G
                 (UTC) (F)     (DEG/KT/KT) (MB)
THOMAS PT LIGHT  0700   69 76  310/  4/  5 1013.3
BALT KEY BRIDGE  0600   69     230/  3/  4 1012.8R
COVE POINT       0600   70     320/  4/  5 1013.6F
LEWISETTA        0600   72 79   10/  2/  4 1012.7F
SOLOMONS ISLAND  0600      79                N/A
PINEY POINT      0600           40/  3/  3   N/A

$$




USA.gov is the U.S. government's official web portal to all federal, state and local government web resources and services.